STARLINK-37541, 68906

Orbit data source: Space-Track

STARLINK-37541, 68906 is a payload satellite owned by SpaceX/Seattle (US) in SSO that was launched on Thu, 30 Apr 2026 UTC via an FALCON 9 launch vehicle from the Air Force Western Test Range (AFWTR). Payload-class satellites include a variety of spacecraft equipped with specific instruments for various scientific and technological missions. These include communications satellites like Starlink; space stations such as the ISS; scientific satellites like the Hubble; Earth observation satellites from companies like Planet Labs, Umbra, and HawkEye 360; GPS; miniature CubeSats for education and research; and military/defense satellites.

Loading next visibility...
Identifier
68906, 2026-097M
Orbit
SSO
Country
Flag of USUS
Related business
Manufacturer
SpaceX/Seattle
Mission
Operational spacecraft
Bus & Motor
STARLINK V2MO, Unknown motor
Mass
575 kg wet, ~530 kg dry
Launch date (UTC)
2026-04-30 (6 days ago)
Launch vehicle
FALCON 9
Launch site
Air Force Western Test Range (AFWTR)
Object type
Payload
Rocket body
Debris
Shape & HBR
Unknown
Radar Cross Section
RCS unknown

Expand to show TLE details & history
Last TLE update: 5 hours ago

TLE from 5 hours ago
0 STARLINK-37541
1 68906U 26097M   26126.25002315 -.02264853  13903-2 -67217-2 0  9993
2 68906  97.2883 321.3009 0001419 101.6168 106.5003 15.92667225  2185
Epoch: 2026-05-06T06:00Z
TLE epoch observation values (Epoch: 2026-05-06T06:00:02.000Z)
Latitude
-28.15448°
Longitude
-176.72318°
Altitude
305.802 km
Speed
7.723 km/s
True Right ascension
09h 09m 35s
True Declination
-28° 00' 07"
Sunlit
Object was in daylight at epoch
Visualization orbit readout
Latitude
Unknown
Longitude
Unknown
Altitude
Unknown
Speed
Unknown
Apparent Right ascension
Unknown
Apparent Declination
Unknown
Sunlit
N/A
Visualization observer readout
Local Sidereal Time
18:51:27
Azimuth
Unknown
Elevation
Unknown
Doppler factor
Unknown
Orbital elements
Apogee altitude
292.633 km
Perigee altitude
290.74 km
Semi-major axis
6,669.824 km
Eccentricity
0.00014
Inclination
97.2883°
RAAN
321.3009°
Arg. of periapsis
101.6168°
True anomaly
106.51589°
Mean anomaly
106.5003°
Eccentric anomaly
106.5081°
Mean motion
3.98448 °/min
Orbital period
90.35 mins
BSTAR
-0.0067217
Loading maneuver chart data...
Computing Atmospheric mass density...
Loading historical data...
Loading historical data...
Loading historical data...
Loading historical data...
Loading historical data...
Loading historical data...
Loading historical data...

Documentation

Showing up to 5 results
|